Time,TemperatureF,DewpointF,PressureIn,WindDirection,WindDirectionDegrees,WindSpeedMPH,WindSpeedGustMPH,Humidity,HourlyPrecipIn,Conditions,Clouds,dailyrainin,SoftwareType,DateUTC
2013-09-13 00:13:00,59.1,58.0,29.91,West,266,0.0,0.0,96,0.00,,,0.00,weatherlink.com 1.10,2013-09-13 07:13:00,
2013-09-13 00:28:00,58.7,58.0,29.91,West,266,0.0,0.0,96,0.00,,,0.00,weatherlink.com 1.10,2013-09-13 07:28:00,
2013-09-13 00:43:00,58.6,58.0,29.91,West,266,0.0,1.0,96,0.00,,,0.00,weatherlink.com 1.10,2013-09-13 07:43:00,
2013-09-13 00:58:00,58.4,58.0,29.92,West,266,0.0,1.0,97,0.00,,,0.00,weatherlink.com 1.10,2013-09-13 07:58:00,
2013-09-13 01:13:00,58.2,57.0,29.92,West,266,1.0,1.0,97,0.00,,,0.00,weatherlink.com 1.10,2013-09-13 08:13:00,
2013-09-13 01:28:00,57.8,57.0,29.93,West,266,1.0,1.0,97,0.00,,,0.00,weatherlink.com 1.10,2013-09-13 08:28:00,
2013-09-13 01:43:00,57.6,57.0,29.93,West,266,0.0,0.0,97,0.00,,,0.00,weatherlink.com 1.10,2013-09-13 08:43:00,
2013-09-13 01:58:00,57.2,56.0,29.93,West,266,0.0,0.0,97,0.00,,,0.00,weatherlink.com 1.10,2013-09-13 08:58:00,
2013-09-13 02:13:00,57.1,56.0,29.93,West,266,0.0,1.0,97,0.00,,,0.00,weatherlink.com 1.10,2013-09-13 09:13:00,
2013-09-13 02:28:00,56.9,56.0,29.93,West,266,0.0,0.0,97,0.00,,,0.00,weatherlink.com 1.10,2013-09-13 09:28:00,
2013-09-13 02:43:00,57.0,56.0,29.93,West,266,0.0,1.0,97,0.00,,,0.00,weatherlink.com 1.10,2013-09-13 09:43:00,
2013-09-13 02:58:00,57.0,56.0,29.93,West,266,0.0,1.0,97,0.00,,,0.00,weatherlink.com 1.10,2013-09-13 09:58:00,
2013-09-13 03:13:00,57.1,56.0,29.93,West,266,0.0,1.0,97,0.00,,,0.00,weatherlink.com 1.10,2013-09-13 10:13:00,
2013-09-13 03:28:00,57.0,56.0,29.93,West,266,0.0,1.0,97,0.00,,,0.00,weatherlink.com 1.10,2013-09-13 10:28:00,
2013-09-13 03:43:00,57.1,56.0,29.94,West,264,0.0,1.0,97,0.00,,,0.00,weatherlink.com 1.10,2013-09-13 10:43:00,
2013-09-13 03:58:00,57.1,56.0,29.94,West,264,0.0,0.0,97,0.00,,,0.00,weatherlink.com 1.10,2013-09-13 10:58:00,
2013-09-13 04:13:00,57.2,56.0,29.94,West,264,0.0,1.0,96,0.00,,,0.00,weatherlink.com 1.10,2013-09-13 11:13:00,
2013-09-13 04:28:00,57.2,56.0,29.94,West,266,0.0,1.0,97,0.00,,,0.00,weatherlink.com 1.10,2013-09-13 11:28:00,
2013-09-13 04:43:00,57.1,56.0,29.94,NE,36,0.0,1.0,97,0.00,,,0.00,weatherlink.com 1.10,2013-09-13 11:43:00,
2013-09-13 04:58:00,57.0,56.0,29.94,NE,34,0.0,1.0,97,0.00,,,0.00,weatherlink.com 1.10,2013-09-13 11:58:00,
2013-09-13 05:13:00,57.0,56.0,29.94,NE,34,0.0,1.0,97,0.00,,,0.00,weatherlink.com 1.10,2013-09-13 12:13:00,
2013-09-13 05:28:00,57.0,56.0,29.94,NE,34,0.0,0.0,97,0.00,,,0.00,weatherlink.com 1.10,2013-09-13 12:28:00,
2013-09-13 05:43:00,57.1,57.0,29.95,NE,34,0.0,0.0,98,0.01,,,0.01,weatherlink.com 1.10,2013-09-13 12:43:00,
2013-09-13 05:58:00,57.2,57.0,29.95,NE,34,0.0,1.0,98,0.01,,,0.01,weatherlink.com 1.10,2013-09-13 12:58:00,
2013-09-13 06:13:00,57.2,57.0,29.95,ESE,102,0.0,0.0,98,0.01,,,0.01,weatherlink.com 1.10,2013-09-13 13:13:00,
2013-09-13 06:28:00,57.3,57.0,29.95,ESE,102,0.0,0.0,98,0.01,,,0.01,weatherlink.com 1.10,2013-09-13 13:28:00,
2013-09-13 06:44:00,57.4,57.0,29.95,East,101,0.0,1.0,98,0.00,,,0.01,weatherlink.com 1.10,2013-09-13 13:44:00,
2013-09-13 06:59:00,57.6,57.0,29.95,ESE,102,0.0,0.0,98,0.00,,,0.01,weatherlink.com 1.10,2013-09-13 13:59:00,
2013-09-13 07:14:00,58.0,58.0,29.95,NNE,33,0.0,2.0,98,0.00,,,0.01,weatherlink.com 1.10,2013-09-13 14:14:00,
2013-09-13 07:29:00,58.2,58.0,29.95,East,82,0.0,1.0,98,0.00,,,0.01,weatherlink.com 1.10,2013-09-13 14:29:00,
2013-09-13 07:44:00,58.4,58.0,29.95,East,82,0.0,1.0,98,0.00,,,0.01,weatherlink.com 1.10,2013-09-13 14:44:00,
2013-09-13 07:59:00,58.5,58.0,29.95,NNE,32,0.0,1.0,98,0.00,,,0.01,weatherlink.com 1.10,2013-09-13 14:59:00,
2013-09-13 08:14:00,58.6,58.0,29.95,NNE,31,0.0,1.0,98,0.00,,,0.01,weatherlink.com 1.10,2013-09-13 15:14:00,
2013-09-13 08:29:00,58.7,58.0,29.95,NNE,32,1.0,1.0,98,0.00,,,0.01,weatherlink.com 1.10,2013-09-13 15:29:00,
2013-09-13 08:44:00,59.0,59.0,29.95,NNW,338,1.0,2.0,98,0.00,,,0.01,weatherlink.com 1.10,2013-09-13 15:44:00,
2013-09-13 08:59:00,59.2,59.0,29.94,SSE,166,2.0,2.0,98,0.00,,,0.01,weatherlink.com 1.10,2013-09-13 15:59:00,
2013-09-13 09:14:00,59.6,59.0,29.95,SSE,150,2.0,2.0,98,0.00,,,0.01,weatherlink.com 1.10,2013-09-13 16:14:00,
2013-09-13 09:29:00,60.0,59.0,29.95,SSE,159,2.0,4.0,97,0.00,,,0.01,weatherlink.com 1.10,2013-09-13 16:29:00,
2013-09-13 09:44:00,60.2,59.0,29.95,SE,145,1.0,2.0,96,0.00,,,0.01,weatherlink.com 1.10,2013-09-13 16:44:00,
2013-09-13 09:59:00,60.3,59.0,29.94,NE,50,2.0,3.0,96,0.00,,,0.01,weatherlink.com 1.10,2013-09-13 16:59:00,
2013-09-13 10:14:00,60.1,59.0,29.94,ENE,72,0.0,1.0,97,0.00,,,0.01,weatherlink.com 1.10,2013-09-13 17:14:00,
2013-09-13 10:29:00,60.1,59.0,29.94,ENE,68,1.0,2.0,97,0.00,,,0.01,weatherlink.com 1.10,2013-09-13 17:29:00,
2013-09-13 10:44:00,60.5,59.0,29.94,ESE,117,1.0,1.0,96,0.00,,,0.01,weatherlink.com 1.10,2013-09-13 17:44:00,
2013-09-13 10:59:00,60.9,60.0,29.94,SSE,147,1.0,3.0,96,0.00,,,0.01,weatherlink.com 1.10,2013-09-13 17:59:00,
2013-09-13 11:14:00,61.1,60.0,29.94,ESE,112,0.0,2.0,95,0.00,,,0.01,weatherlink.com 1.10,2013-09-13 18:14:00,
2013-09-13 11:29:00,61.4,60.0,29.93,East,92,0.0,1.0,94,0.00,,,0.01,weatherlink.com 1.10,2013-09-13 18:29:00,
2013-09-13 11:44:00,61.8,60.0,29.93,ENE,75,1.0,1.0,94,0.00,,,0.01,weatherlink.com 1.10,2013-09-13 18:44:00,
2013-09-13 11:59:00,61.6,60.0,29.93,ESE,105,0.0,2.0,94,0.00,,,0.01,weatherlink.com 1.10,2013-09-13 18:59:00,
2013-09-13 12:14:00,61.6,60.0,29.93,NNE,18,1.0,4.0,94,0.00,,,0.01,weatherlink.com 1.10,2013-09-13 19:14:00,
2013-09-13 12:29:00,61.9,60.0,29.92,NE,34,0.0,2.0,94,0.00,,,0.01,weatherlink.com 1.10,2013-09-13 19:29:00,
2013-09-13 12:44:00,62.5,61.0,29.92,SE,136,0.0,2.0,93,0.00,,,0.01,weatherlink.com 1.10,2013-09-13 19:44:00,
2013-09-13 13:14:00,62.9,60.0,29.92,SSE,151,1.0,4.0,91,0.00,,,0.01,weatherlink.com 1.10,2013-09-13 20:14:00,
2013-09-13 13:29:00,63.0,60.0,29.92,SSE,162,2.0,4.0,91,0.00,,,0.01,weatherlink.com 1.10,2013-09-13 20:29:00,
2013-09-13 13:44:00,63.1,61.0,29.91,East,79,2.0,3.0,91,0.00,,,0.01,weatherlink.com 1.10,2013-09-13 20:44:00,
2013-09-13 13:59:00,63.4,61.0,29.91,SE,124,1.0,3.0,91,0.00,,,0.01,weatherlink.com 1.10,2013-09-13 20:59:00,
2013-09-13 14:14:00,64.0,61.0,29.91,East,80,1.0,2.0,90,0.00,,,0.01,weatherlink.com 1.10,2013-09-13 21:14:00,
2013-09-13 14:29:00,64.2,61.0,29.91,SE,135,0.0,3.0,89,0.00,,,0.01,weatherlink.com 1.10,2013-09-13 21:29:00,
2013-09-13 14:44:00,64.3,61.0,29.90,SSE,159,1.0,3.0,89,0.00,,,0.01,weatherlink.com 1.10,2013-09-13 21:44:00,
2013-09-13 14:59:00,64.3,61.0,29.90,SE,139,1.0,4.0,89,0.00,,,0.01,weatherlink.com 1.10,2013-09-13 21:59:00,
2013-09-13 15:14:00,64.8,61.0,29.89,ESE,117,0.0,1.0,88,0.00,,,0.01,weatherlink.com 1.10,2013-09-13 22:14:00,
2013-09-13 15:29:00,64.6,61.0,29.89,SSE,148,0.0,3.0,89,0.00,,,0.01,weatherlink.com 1.10,2013-09-13 22:29:00,
2013-09-13 15:44:00,64.5,61.0,29.89,South,172,1.0,3.0,89,0.00,,,0.01,weatherlink.com 1.10,2013-09-13 22:44:00,
2013-09-13 15:59:00,64.6,61.0,29.89,SSE,163,0.0,3.0,89,0.00,,,0.01,weatherlink.com 1.10,2013-09-13 22:59:00,
2013-09-13 16:14:00,64.8,61.0,29.88,SE,134,2.0,4.0,88,0.00,,,0.01,weatherlink.com 1.10,2013-09-13 23:14:00,
2013-09-13 16:29:00,64.5,61.0,29.88,SSE,158,3.0,4.0,89,0.00,,,0.01,weatherlink.com 1.10,2013-09-13 23:29:00,
2013-09-13 16:44:00,64.4,61.0,29.88,SE,142,3.0,5.0,89,0.00,,,0.01,weatherlink.com 1.10,2013-09-13 23:44:00,
2013-09-13 16:59:00,64.4,61.0,29.87,SSE,159,5.0,5.0,89,0.00,,,0.01,weatherlink.com 1.10,2013-09-13 23:59:00,
2013-09-13 17:14:00,64.5,61.0,29.87,SE,139,4.0,5.0,88,0.00,,,0.01,weatherlink.com 1.10,2013-09-14 00:14:00,
2013-09-13 17:29:00,64.3,61.0,29.86,SE,138,3.0,5.0,89,0.00,,,0.01,weatherlink.com 1.10,2013-09-14 00:29:00,
2013-09-13 17:44:00,64.2,61.0,29.86,ESE,104,2.0,5.0,89,0.00,,,0.01,weatherlink.com 1.10,2013-09-14 00:44:00,
2013-09-13 17:59:00,64.1,61.0,29.86,SSE,159,2.0,4.0,89,0.00,,,0.01,weatherlink.com 1.10,2013-09-14 00:59:00,
2013-09-13 18:14:00,64.0,61.0,29.86,SSW,195,1.0,5.0,89,0.00,,,0.01,weatherlink.com 1.10,2013-09-14 01:14:00,
2013-09-13 18:29:00,63.9,61.0,29.86,SSW,197,2.0,5.0,90,0.00,,,0.01,weatherlink.com 1.10,2013-09-14 01:29:00,
2013-09-13 18:45:00,63.8,61.0,29.86,SE,142,2.0,4.0,90,0.00,,,0.01,weatherlink.com 1.10,2013-09-14 01:45:00,
2013-09-13 19:00:00,63.7,61.0,29.86,South,191,1.0,3.0,90,0.00,,,0.01,weatherlink.com 1.10,2013-09-14 02:00:00,
2013-09-13 19:15:00,63.5,61.0,29.85,SE,130,2.0,2.0,91,0.00,,,0.01,weatherlink.com 1.10,2013-09-14 02:15:00,
2013-09-13 19:30:00,63.4,61.0,29.85,SE,142,2.0,4.0,91,0.00,,,0.01,weatherlink.com 1.10,2013-09-14 02:30:00,
2013-09-13 19:45:00,63.3,61.0,29.86,SSE,148,1.0,3.0,91,0.00,,,0.01,weatherlink.com 1.10,2013-09-14 02:45:00,
2013-09-13 20:00:00,63.2,61.0,29.86,South,177,4.0,5.0,92,0.00,,,0.01,weatherlink.com 1.10,2013-09-14 03:00:00,
2013-09-13 20:15:00,63.1,61.0,29.86,SW,221,0.0,4.0,92,0.00,,,0.01,weatherlink.com 1.10,2013-09-14 03:15:00,
2013-09-13 20:30:00,63.0,61.0,29.86,ESE,117,1.0,1.0,92,0.00,,,0.01,weatherlink.com 1.10,2013-09-14 03:30:00,
2013-09-13 20:45:00,63.0,61.0,29.86,SE,141,0.0,2.0,92,0.00,,,0.01,weatherlink.com 1.10,2013-09-14 03:45:00,
2013-09-13 21:00:00,62.9,61.0,29.87,SE,136,1.0,3.0,92,0.00,,,0.01,weatherlink.com 1.10,2013-09-14 04:00:00,
2013-09-13 21:15:00,62.9,61.0,29.87,SSE,155,2.0,2.0,92,0.00,,,0.01,weatherlink.com 1.10,2013-09-14 04:15:00,
2013-09-13 21:30:00,62.8,61.0,29.87,SSE,156,2.0,3.0,92,0.00,,,0.01,weatherlink.com 1.10,2013-09-14 04:30:00,
2013-09-13 21:45:00,62.7,61.0,29.87,SSE,150,1.0,3.0,93,0.00,,,0.01,weatherlink.com 1.10,2013-09-14 04:45:00,
2013-09-13 22:00:00,62.7,61.0,29.87,SSE,153,0.0,1.0,93,0.00,,,0.01,weatherlink.com 1.10,2013-09-14 05:00:00,
2013-09-13 22:15:00,62.6,61.0,29.87,East,86,1.0,2.0,93,0.00,,,0.01,weatherlink.com 1.10,2013-09-14 05:15:00,
2013-09-13 22:30:00,62.6,61.0,29.87,SE,143,1.0,2.0,93,0.00,,,0.01,weatherlink.com 1.10,2013-09-14 05:30:00,
2013-09-13 22:45:00,62.5,61.0,29.87,ESE,117,1.0,2.0,93,0.00,,,0.01,weatherlink.com 1.10,2013-09-14 05:45:00,
2013-09-13 23:00:00,62.5,61.0,29.87,East,98,0.0,0.0,93,0.00,,,0.01,weatherlink.com 1.10,2013-09-14 06:00:00,
2013-09-13 23:15:00,62.4,61.0,29.87,East,97,0.0,1.0,94,0.00,,,0.01,weatherlink.com 1.10,2013-09-14 06:15:00,
2013-09-13 23:30:00,62.3,61.0,29.87,SSE,148,2.0,2.0,94,0.00,,,0.01,weatherlink.com 1.10,2013-09-14 06:30:00,
2013-09-13 23:45:00,62.3,61.0,29.86,South,172,0.0,1.0,94,0.00,,,0.01,weatherlink.com 1.10,2013-09-14 06:45:00,